EW4745 Weather Reports


time (UTC)temp
C
wind
direction
speed
KPH
gust
KPH
rain 1hr
cm
rain 24hr
cm
rain mn
cm
humidity
%
barometer
mb
20260506222417 32 101 1.6 3.2 0.00 0.00 0.00 74 1006.4
20260506222306 32 55 0.0 3.2 0.00 0.00 0.00 74 1005.4
20260506221918 32 58 0.0 3.2 0.00 0.00 0.00 73 1006.4
20260506221759 32 51 0.0 3.2 0.00 0.00 0.00 72 1005.4
20260506221418 32 55 0.0 1.6 0.00 0.00 0.00 72 1006.4
20260506221251 32 55 0.0 3.2 0.00 0.00 0.00 72 1005.4
20260506220915 32 55 0.0 0.0 0.00 0.00 0.00 73 1006.4
20260506220747 32 55 0.0 3.2 0.00 0.00 0.00 72 1005.5
20260506220418 32 55 0.0 3.2 0.00 0.00 0.00 72 1006.4
20260506220241 32 163 0.0 3.2 0.00 0.00 0.00 72 1005.5
20260506215916 32 193 0.0 0.0 0.00 0.00 0.00 73 1006.4
20260506215735 32 96 0.0 3.2 0.00 0.00 0.00 73 1005.4
20260506215416 32 74 0.0 1.6 0.00 0.00 0.00 73 1006.4
20260506215227 32 80 0.0 1.6 0.00 0.00 0.00 73 1005.4
20260506214915 32 79 0.0 1.6 0.00 0.00 0.00 73 1006.4
20260506214721 32 79 0.0 4.8 0.00 0.00 0.00 72 1005.5
20260506214416 32 79 1.6 1.6 0.00 0.00 0.00 74 1006.8
20260506214216 32 32 0.0 4.8 0.00 0.00 0.00 73 1005.6
20260506213914 32 82 0.0 4.8 0.00 0.00 0.00 72 1006.4
20260506213415 32 119 0.0 1.6 0.00 0.00 0.00 73 1006.4
20260506213204 32 117 0.0 3.2 0.00 0.00 0.00 73 1005.4
20260506212915 32 65 0.0 1.6 0.00 0.00 0.00 73 1006.8
20260506212658 32 70 0.0 3.2 0.00 0.00 0.00 73 1005.5
20260506212416 32 69 1.6 3.2 0.00 0.00 0.00 72 1006.8
20260506211914 32 326 0.0 1.6 0.00 0.00 0.00 73 1006.8
20260506211645 32 12 0.0 1.6 0.00 0.00 0.00 74 1005.5
20260506211413 31 14 0.0 0.0 0.00 0.00 0.00 74 1006.4
20260506211141 31 14 0.0 3.2 0.00 0.00 0.00 75 1005.5
20260506210914 31 14 0.0 0.0 0.00 0.00 0.00 73 1006.4
20260506210634 31 14 0.0 3.2 0.00 0.00 0.00 73 1005.5
20260506210413 32 15 0.0 1.6 0.00 0.00 0.00 73 1006.8
20260506210128 32 306 0.0 3.2 0.00 0.00 0.00 73 1005.6
20260506205914 32 115 1.6 1.6 0.00 0.00 0.00 73 1006.8
20260506205622 32 115 1.6 4.8 0.00 0.00 0.00 74 1005.7
20260506205413 32 115 1.6 1.6 0.00 0.00 0.00 74 1006.8
20260506205116 32 67 0.0 4.8 0.00 0.00 0.00 74 1005.8
20260506204915 32 67 4.8 4.8 0.00 0.00 0.00 75 1007.1
20260506204610 32 92 0.0 4.8 0.00 0.00 0.00 73 1005.9
20260506204415 32 87 0.0 1.6 0.00 0.00 0.00 74 1007.1
20260506204105 32 223 0.0 3.2 0.00 0.00 0.00 74 1005.9
20260506203912 32 76 0.0 1.6 0.00 0.00 0.00 74 1007.1
20260506203559 32 282 1.6 4.8 0.00 0.00 0.00 75 1006.0
20260506203412 32 184 1.6 1.6 0.00 0.00 0.00 76 1007.1
20260506203053 32 178 1.6 9.7 0.00 0.00 0.00 75 1005.9
20260506202912 32 224 3.2 3.2 0.00 0.00 0.00 77 1007.1
20260506202547 31 210 3.2 9.7 0.00 0.00 0.00 77 1006.0
20260506202413 31 225 0.0 6.4 0.00 0.00 0.00 77 1007.1
20260506202040 31 246 3.2 8.0 0.00 0.00 0.00 76 1006.0
20260506201913 31 204 0.0 4.8 0.00 0.00 0.00 77 1007.1
20260506201412 31 196 1.6 4.8 0.00 0.00 0.00 78 1007.1
20260506200913 31 207 0.0 4.8 0.00 0.00 0.00 77 1007.5
20260506200523 31 152 3.2 17.7 0.00 0.00 0.00 78 1006.2
20260506200411 31 198 0.0 6.4 0.00 0.00 0.00 78 1007.5
20260506200017 31 254 1.6 14.5 0.00 0.00 0.00 77 1006.2
20260506195911 31 219 4.8 14.5 0.00 0.00 0.00 77 1007.5
20260506195511 31 197 1.6 4.8 0.00 0.00 0.00 78 1006.2
20260506195414 31 196 1.6 4.8 0.00 0.00 0.00 78 1007.5
20260506195009 31 18 1.6 6.4 0.00 0.00 0.00 79 1006.3
20260506194939 31 184 1.6 3.2 0.00 0.00 0.00 79 1007.5
20260506194453 30 159 3.2 9.7 0.00 0.00 0.00 80 1006.4
20260506194440 30 210 1.6 3.2 0.00 0.00 0.00 80 1007.5
20260506193941 30 195 6.4 8.0 0.00 0.00 0.00 79 1007.8
20260506193510 30 229 1.6 6.4 0.00 0.00 0.00 80 1007.8
20260506193013 30 211 3.2 8.0 0.00 0.00 0.00 80 1007.8
20260506192937 30 152 1.6 12.9 0.00 0.00 0.00 80 1006.8
20260506192512 31 217 6.4 6.4 0.00 0.00 0.00 79 1008.1
20260506192430 31 255 1.6 8.0 0.00 0.00 0.00 79 1006.9
20260506192014 31 188 1.6 3.2 0.00 0.00 0.00 79 1008.1
20260506191924 30 136 1.6 8.0 0.00 0.00 0.00 80 1006.8
20260506191512 31 221 4.8 8.0 0.00 0.00 0.00 79 1008.1
20260506191418 31 246 0.0 8.0 0.00 0.00 0.00 80 1006.9
20260506191013 31 244 1.6 4.8 0.00 0.00 0.00 79 1008.1
20260506190912 31 246 1.6 4.8 0.00 0.00 0.00 79 1007.0
20260506190510 31 174 0.0 1.6 0.00 0.00 0.00 78 1008.1
20260506190405 31 261 1.6 8.0 0.00 0.00 0.00 78 1006.9
20260506190011 31 224 1.6 4.8 0.00 0.00 0.00 78 1008.1
20260506185901 31 198 1.6 8.0 0.00 0.00 0.00 78 1006.9
20260506185511 31 166 0.0 1.6 0.00 0.00 0.00 78 1008.1
20260506185015 31 235 0.0 1.6 0.00 0.00 0.00 79 1008.1
20260506184847 31 169 0.0 1.6 0.00 0.00 0.00 79 1007.0
20260506184514 31 190 0.0 1.6 0.00 0.00 0.00 80 1008.1
20260506184343 30 225 0.0 6.4 0.00 0.00 0.00 80 1007.0
20260506184012 30 208 0.0 1.6 0.00 0.00 0.00 81 1008.5
20260506183836 30 65 0.0 6.4 0.00 0.00 0.00 81 1007.1
20260506183513 30 207 0.0 4.8 0.00 0.00 0.00 81 1008.5
20260506183330 30 240 0.0 4.8 0.00 0.00 0.00 81 1007.2
20260506183015 30 207 0.0 4.8 0.00 0.00 0.00 81 1008.5
20260506182824 30 229 1.6 8.0 0.00 0.00 0.00 81 1007.3
20260506182512 30 226 0.0 3.2 0.00 0.00 0.00 81 1008.5
20260506182318 30 227 0.0 8.0 0.00 0.00 0.00 81 1007.4
20260506182016 30 180 0.0 1.6 0.00 0.00 0.00 83 1008.5
20260506181811 30 239 0.0 1.6 0.00 0.00 0.00 83 1007.5
20260506181510 29 190 0.0 0.0 0.00 0.00 0.00 85 1008.5
20260506181306 29 147 0.0 1.6 0.00 0.00 0.00 85 1007.6
20260506181014 28 201 0.0 0.0 0.00 0.00 0.00 86 1008.8
20260506180516 28 215 0.0 1.6 0.00 0.00 0.00 86 1008.8
20260506180253 28 230 0.0 3.2 0.00 0.00 0.00 85 1007.7
20260506180011 28 223 1.6 1.6 0.00 0.00 0.00 86 1008.8
20260506175748 28 248 0.0 3.2 0.00 0.00 0.00 86 1007.7
20260506175512 28 227 0.0 1.6 0.00 0.00 0.00 87 1008.8
20260506175241 28 313 0.0 3.2 0.00 0.00 0.00 87 1007.8
20260506175014 28 213 0.0 1.6 0.00 0.00 0.00 87 1009.1
20260506174736 28 229 1.6 8.0 0.00 0.00 0.00 87 1007.8
20260506174514 28 204 0.0 1.6 0.00 0.00 0.00 87 1008.8
20260506174230 28 210 1.6 8.0 0.00 0.00 0.00 86 1007.8
20260506174038 28 221 3.2 6.4 0.00 0.00 0.00 85 1009.1
20260506173724 28 160 0.0 6.4 0.00 0.00 0.00 84 1007.9
20260506173539 28 226 0.0 3.2 0.00 0.00 0.00 84 1009.1
20260506173218 28 202 0.0 1.6 0.00 0.00 0.00 85 1007.9
20260506173039 28 210 0.0 1.6 0.00 0.00 0.00 85 1009.1
20260506172712 28 221 0.0 1.6 0.00 0.00 0.00 85 1007.8
20260506172525 28 227 0.0 1.6 0.00 0.00 0.00 85 1009.1
20260506172207 28 235 0.0 1.6 0.00 0.00 0.00 85 1007.8
20260506172022 28 179 0.0 0.0 0.00 0.00 0.00 85 1008.8
20260506171701 28 283 0.0 1.6 0.00 0.00 0.00 85 1007.9
20260506171523 28 86 0.0 1.6 0.00 0.00 0.00 85 1009.1
20260506171156 28 83 0.0 1.6 0.00 0.00 0.00 86 1007.9
20260506171021 28 249 0.0 1.6 0.00 0.00 0.00 86 1009.1
20260506170648 28 28 0.0 1.6 0.00 0.00 0.00 86 1007.9
20260506170524 28 26 0.0 0.0 0.00 0.00 0.00 86 1009.1
20260506170141 28 26 0.0 1.6 0.00 0.00 0.00 86 1007.8
20260506170023 28 26 0.0 1.6 0.00 0.00 0.00 86 1009.1
20260506165522 28 191 0.0 1.6 0.00 0.00 0.00 86 1009.1
20260506165130 28 29 0.0 6.4 0.00 0.00 0.00 86 1007.9
20260506165022 28 166 0.0 0.0 0.00 0.00 0.00 86 1009.1
20260506164624 28 87 0.0 3.2 0.00 0.00 0.00 86 1007.9
20260506164525 28 104 0.0 1.6 0.00 0.00 0.00 86 1009.1
20260506164118 28 95 0.0 1.6 0.00 0.00 0.00 87 1007.8
20260506164022 28 95 0.0 1.6 0.00 0.00 0.00 87 1008.8
20260506163612 28 95 0.0 1.6 0.00 0.00 0.00 87 1007.8
20260506163520 28 94 0.0 1.6 0.00 0.00 0.00 87 1008.8
20260506163022 28 27 0.0 0.0 0.00 0.00 0.00 87 1008.8
20260506162600 28 81 0.0 3.2 0.00 0.00 0.00 87 1007.7
20260506162521 28 81 0.0 1.6 0.00 0.00 0.00 87 1008.8
20260506162054 27 65 0.0 4.8 0.00 0.00 0.00 88 1007.6
20260506162021 27 90 0.0 1.6 0.00 0.00 0.00 88 1008.8
20260506161548 27 28 0.0 4.8 0.00 0.00 0.00 87 1007.5
20260506161522 27 33 3.2 3.2 0.00 0.00 0.00 87 1008.5
20260506161020 27 215 1.6 1.6 0.00 0.00 0.00 88 1008.5
20260506160537 27 86 0.0 1.6 0.00 0.00 0.00 88 1007.5
20260506160521 27 86 0.0 1.6 0.00 0.00 0.00 88 1008.5
20260506160031 27 86 0.0 1.6 0.00 0.00 0.00 88 1007.3
20260506160021 27 86 0.0 1.6 0.00 0.00 0.00 89 1008.5
20260506155525 27 71 0.0 4.8 0.00 0.00 0.00 89 1007.2
20260506155521 27 71 0.0 1.6 0.00 0.00 0.00 89 1008.5
20260506155019 27 119 0.0 4.8 0.00 0.00 0.00 89 1008.5
20260506155017 27 120 0.0 4.8 0.00 0.00 0.00 89 1007.1
20260506154520 27 76 0.0 1.6 0.00 0.00 0.00 90 1008.1
20260506154518 27 15 0.0 3.2 0.00 0.00 0.00 90 1007.0
20260506154022 27 23 0.0 1.6 0.00 0.00 0.00 90 1008.1
20260506153520 27 74 0.0 1.6 0.00 0.00 0.00 89 1008.1
20260506153515 27 88 0.0 3.2 0.00 0.00 0.00 90 1007.1
20260506153020 27 86 0.0 3.2 0.00 0.00 0.00 90 1008.1
20260506153012 27 86 0.0 3.2 0.00 0.00 0.00 90 1007.0
20260506152519 27 31 0.0 1.6 0.00 0.00 0.00 90 1008.1
20260506152021 27 317 0.0 1.6 0.00 0.00 0.00 90 1008.1
20260506152011 27 317 0.0 6.4 0.00 0.00 0.00 90 1007.0
20260506151517 26 75 0.0 4.8 0.00 0.00 0.00 90 1008.1
20260506151019 26 56 0.0 1.6 0.00 0.00 0.00 92 1008.1
20260506151010 26 60 0.0 4.8 0.00 0.00 0.00 92 1006.8
20260506150518 26 65 0.0 1.6 0.00 0.00 0.00 93 1007.8
20260506150510 26 65 0.0 4.8 0.00 0.00 0.00 93 1006.7
20260506150019 26 109 0.0 1.6 0.00 0.00 0.00 93 1007.8
20260506150009 26 109 1.6 4.8 0.00 0.00 0.00 93 1006.7
20260506145519 26 71 0.0 4.8 0.00 0.00 0.00 94 1007.8
20260506145508 26 70 0.0 4.8 0.00 0.00 0.00 94 1006.6
20260506145018 25 234 0.0 1.6 0.00 0.00 0.00 94 1007.8
20260506145008 25 223 0.0 1.6 0.00 0.00 0.00 94 1006.5
20260506144617 25 110 0.0 0.0 0.00 0.00 0.00 95 1007.5
20260506144116 25 105 0.0 1.6 0.00 0.00 0.00 95 1007.8
20260506144008 25 105 0.0 4.8 0.00 0.00 0.00 94 1006.4
20260506143617 25 92 1.6 4.8 0.00 0.00 0.00 95 1007.8
20260506143506 25 71 0.0 1.6 0.00 0.00 0.00 95 1006.5
20260506143116 25 78 0.0 1.6 0.00 0.00 0.00 95 1007.8
20260506143005 25 78 0.0 6.4 0.00 0.00 0.00 95 1006.6
20260506142617 25 111 0.0 0.0 0.00 0.00 0.00 95 1007.8
20260506142502 25 82 0.0 6.4 0.00 0.00 0.00 95 1006.5
20260506142116 25 281 1.6 3.2 0.00 0.00 0.00 95 1007.8
20260506142000 25 103 0.0 3.2 0.00 0.00 0.00 95 1006.5
20260506141616 25 107 0.0 3.2 0.00 0.00 0.00 95 1007.5
20260506141500 25 102 0.0 3.2 0.00 0.00 0.00 95 1006.5
20260506141116 25 103 0.0 3.2 0.00 0.00 0.00 95 1007.8
20260506140617 25 79 0.0 3.2 0.00 0.00 0.00 95 1007.5
20260506140115 25 15 0.0 0.0 0.00 0.00 0.00 95 1007.5
20260506135952 25 15 0.0 0.0 0.00 0.00 0.00 95 1006.4
20260506135616 25 13 0.0 0.0 0.00 0.00 0.00 95 1007.5
20260506135450 25 13 0.0 0.0 0.00 0.00 0.00 95 1006.3
20260506135117 25 12 0.0 0.0 0.00 0.00 0.00 95 1007.5
20260506134949 25 13 0.0 1.6 0.00 0.00 0.00 95 1006.5
20260506134618 25 309 0.0 0.0 0.00 0.00 0.00 95 1007.5
20260506134447 25 309 0.0 1.6 0.00 0.00 0.00 95 1006.4
20260506134114 25 90 0.0 1.6 0.00 0.00 0.00 95 1007.5
20260506133945 25 90 0.0 1.6 0.00 0.03 0.00 95 1006.4
20260506133616 25 90 0.0 1.6 0.00 0.00 0.00 95 1007.5
20260506133444 25 89 0.0 1.6 0.00 0.03 0.00 95 1006.5
20260506133114 25 89 0.0 0.0 0.00 0.00 0.00 95 1007.8
20260506132944 25 90 0.0 1.6 0.00 0.03 0.00 95 1006.7
20260506132614 25 82 0.0 0.0 0.00 0.00 0.00 95 1007.8
20260506132442 25 82 0.0 1.6 0.00 0.03 0.00 95 1006.6
20260506132114 25 82 0.0 1.6 0.00 0.00 0.00 95 1007.8
20260506131940 25 82 0.0 1.6 0.00 0.03 0.00 95 1006.5
20260506131614 25 88 0.0 1.6 0.00 0.00 0.00 95 1007.8
20260506131438 25 88 0.0 1.6 0.00 0.03 0.00 95 1006.5
20260506131115 25 84 0.0 0.0 0.00 0.00 0.00 96 1007.5
20260506130614 25 84 0.0 1.6 0.00 0.00 0.00 96 1007.8
20260506130438 24 85 0.0 3.2 0.00 0.03 0.00 96 1006.6
20260506130113 25 90 0.0 1.6 0.00 0.00 0.00 96 1007.5
20260506125938 24 90 0.0 4.8 0.00 0.03 0.00 96 1006.5
20260506125613 25 65 0.0 1.6 0.00 0.00 0.00 96 1007.5
20260506125112 25 105 0.0 1.6 0.00 0.00 0.00 96 1007.5
20260506124638 24 104 0.0 1.6 0.00 0.00 0.00 96 1007.5
20260506124436 24 105 0.0 1.6 0.00 0.03 0.00 96 1006.3
20260506124138 24 104 0.0 1.6 0.00 0.00 0.00 96 1007.5
20260506123934 24 103 0.0 1.6 0.00 0.03 0.00 96 1006.4
20260506123646 24 103 0.0 1.6 0.00 0.00 0.00 96 1007.5
20260506123431 24 103 0.0 1.6 0.00 0.03 0.00 96 1006.3
20260506123212 24 96 0.0 1.6 0.00 0.00 0.00 96 1007.5
20260506122933 24 101 0.0 0.0 0.00 0.03 0.00 96 1006.4
20260506122717 24 76 0.0 0.0 0.00 0.00 0.00 96 1007.5
20260506122212 24 75 0.0 0.0 0.00 0.00 0.00 96 1007.5
20260506121923 24 75 0.0 3.2 0.00 0.03 0.00 96 1006.3
20260506121717 24 75 0.0 0.0 0.00 0.00 0.00 96 1007.5
20260506121422 24 75 0.0 3.2 0.00 0.03 0.00 96 1006.4
20260506121215 24 69 1.6 3.2 0.00 0.00 0.00 96 1007.5
20260506120922 24 92 0.0 1.6 0.00 0.03 0.00 96 1006.5
20260506120711 24 91 0.0 1.6 0.00 0.00 0.00 96 1007.5
20260506120422 24 94 0.0 1.6 0.00 0.03 0.00 96 1006.3
20260506120215 24 94 0.0 0.0 0.00 0.00 0.00 96 1007.5
20260506115919 24 94 0.0 1.6 0.00 0.03 0.00 96 1006.2
20260506115714 24 94 0.0 0.0 0.00 0.00 0.00 96 1007.5
20260506115418 24 94 0.0 1.6 0.00 0.03 0.00 96 1006.2
20260506115210 24 93 0.0 1.6 0.00 0.00 0.00 96 1007.5
20260506114713 24 94 0.0 0.0 0.00 0.00 0.00 96 1007.5
20260506114212 24 92 0.0 0.0 0.00 0.00 0.00 96 1007.5
20260506113914 24 92 0.0 0.0 0.00 0.03 0.00 96 1006.2
20260506113713 24 92 0.0 0.0 0.00 0.00 0.00 96 1007.5
20260506113412 24 92 0.0 1.6 0.00 0.03 0.00 96 1006.1
20260506113212 24 105 0.0 0.0 0.00 0.00 0.00 96 1007.1
20260506112911 24 105 0.0 1.6 0.00 0.03 0.00 96 1006.0
20260506112710 24 105 0.0 0.0 0.00 0.00 0.00 96 1007.1
20260506112407 24 107 0.0 1.6 0.00 0.03 0.00 96 1006.0
20260506112212 24 107 0.0 1.6 0.00 0.00 0.00 96 1007.1
20260506111908 24 108 0.0 1.6 0.00 0.03 0.00 96 1006.0
20260506111712 24 107 0.0 1.6 0.00 0.00 0.00 96 1007.1
20260506111406 24 76 0.0 3.2 0.00 0.03 0.00 95 1005.9
20260506111214 24 94 0.0 0.0 0.00 0.00 0.00 95 1007.1
20260506110904 24 93 0.0 3.2 0.00 0.03 0.00 95 1005.9
20260506110712 24 94 0.0 3.2 0.00 0.00 0.00 95 1007.1
20260506110404 24 325 0.0 1.6 0.00 0.03 0.00 95 1005.9
20260506110211 24 325 0.0 0.0 0.00 0.00 0.00 95 1007.1
20260506105710 24 101 0.0 0.0 0.00 0.00 0.00 95 1006.8
20260506105404 24 96 0.0 1.6 0.00 0.03 0.00 95 1005.8
20260506105212 24 96 0.0 1.6 0.00 0.00 0.00 95 1006.8
20260506104858 24 97 0.0 1.6 0.00 0.03 0.00 95 1005.7
20260506104741 24 97 0.0 1.6 0.00 0.00 0.00 95 1006.8
20260506104351 24 74 0.0 3.2 0.00 0.03 0.00 95 1005.6
20260506104239 24 74 0.0 0.0 0.00 0.00 0.00 95 1006.8
20260506103852 24 65 0.0 3.2 0.00 0.03 0.00 95 1005.7
20260506103742 24 77 0.0 3.2 0.00 0.00 0.00 95 1006.8
20260506103353 24 132 0.0 1.6 0.00 0.03 0.00 95 1005.7
20260506103244 24 133 0.0 0.0 0.00 0.00 0.00 95 1006.8
20260506102850 24 111 0.0 1.6 0.00 0.03 0.00 95 1005.6
20260506102743 24 61 0.0 1.6 0.00 0.00 0.00 95 1006.8
20260506102351 24 64 0.0 1.6 0.00 0.03 0.00 95 1005.8
20260506102239 24 74 0.0 1.6 0.00 0.00 0.00 95 1006.8
20260506101850 24 74 0.0 1.6 0.00 0.03 0.00 95 1005.8
20260506101741 24 74 0.0 1.6 0.00 0.00 0.00 95 1006.8
20260506101240 24 74 0.0 1.6 0.00 0.00 0.00 95 1006.8
20260506100847 24 74 0.0 1.6 0.00 0.03 0.00 95 1005.8
20260506100739 24 74 0.0 0.0 0.00 0.00 0.00 95 1006.8
20260506100241 24 74 0.0 0.0 0.00 0.00 0.00 95 1006.8
20260506095846 24 67 0.0 1.6 0.00 0.03 0.00 95 1005.7
20260506095729 25 66 0.0 0.0 0.00 0.00 0.00 95 1006.8
20260506095345 24 66 0.0 1.6 0.00 0.03 0.00 95 1005.7
20260506095229 25 67 0.0 1.6 0.00 0.00 0.00 95 1006.8
20260506094847 24 67 0.0 1.6 0.00 0.03 0.00 95 1005.7
20260506094731 25 62 0.0 1.6 0.00 0.00 0.00 95 1006.8
20260506094347 24 61 0.0 1.6 0.00 0.03 0.00 95 1005.7
20260506094230 25 18 0.0 0.0 0.00 0.00 0.00 95 1006.8
20260506093846 24 18 0.0 1.6 0.00 0.03 0.00 95 1005.7
20260506093729 25 18 0.0 1.6 0.00 0.00 0.00 95 1006.8
20260506093343 25 33 0.0 1.6 0.00 0.03 0.00 95 1005.7
20260506093229 25 33 0.0 1.6 0.00 0.00 0.00 95 1006.8
20260506092844 24 34 0.0 1.6 0.00 0.03 0.00 95 1005.6
20260506092728 25 33 0.0 0.0 0.00 0.00 0.00 95 1006.8
20260506092344 25 32 0.0 0.0 0.00 0.03 0.00 94 1005.7
20260506092228 25 32 0.0 0.0 0.00 0.00 0.00 94 1006.8
20260506091844 25 32 0.0 0.0 0.00 0.03 0.00 94 1005.8
20260506091729 25 32 0.0 0.0 0.00 0.00 0.00 94 1006.8
20260506091343 25 32 0.0 1.6 0.00 0.03 0.00 94 1005.6
20260506091230 25 33 0.0 0.0 0.00 0.00 0.00 94 1006.8
20260506090843 25 33 0.0 1.6 0.00 0.03 0.00 94 1005.6
20260506090730 25 32 0.0 0.0 0.00 0.00 0.00 94 1006.8
20260506090343 25 32 0.0 1.6 0.00 0.03 0.00 94 1005.7
20260506090229 25 32 0.0 1.6 0.00 0.00 0.00 94 1006.8
20260506085844 25 32 0.0 1.6 0.00 0.03 0.00 94 1005.8
20260506085728 25 32 0.0 0.0 0.00 0.00 0.00 94 1006.8
20260506085343 25 267 0.0 1.6 0.00 0.03 0.00 94 1005.4
20260506085227 25 267 0.0 1.6 0.00 0.00 0.00 94 1006.4
20260506084841 25 264 0.0 1.6 0.00 0.03 0.00 94 1005.4
20260506084728 25 22 0.0 0.0 0.00 0.00 0.00 94 1006.4
20260506084340 25 23 0.0 1.6 0.00 0.03 0.00 94 1005.5
20260506084226 25 282 0.0 0.0 0.00 0.00 0.00 94 1006.8
20260506083844 25 282 0.0 1.6 0.00 0.03 0.00 93 1005.7
20260506083727 25 283 0.0 0.0 0.00 0.00 0.00 93 1006.8
20260506083340 25 98 0.0 1.6 0.00 0.03 0.00 93 1005.7
20260506083226 25 98 0.0 1.6 0.00 0.00 0.00 93 1006.8
20260506082840 25 98 0.0 1.6 0.00 0.03 0.00 93 1005.7
20260506082727 25 99 0.0 1.6 0.00 0.00 0.00 93 1006.8
20260506082340 25 100 0.0 1.6 0.00 0.03 0.00 93 1005.7
20260506082226 25 100 0.0 0.0 0.00 0.00 0.00 93 1006.8
20260506081841 25 101 0.0 1.6 0.00 0.03 0.00 93 1005.6
20260506081728 25 101 0.0 0.0 0.00 0.00 0.00 93 1006.8
20260506081335 25 103 0.0 1.6 0.00 0.03 0.00 93 1005.6
20260506081225 25 103 0.0 1.6 0.00 0.00 0.00 93 1006.8
20260506080836 25 101 0.0 1.6 0.00 0.03 0.00 93 1005.7
20260506080728 25 92 0.0 1.6 0.00 0.00 0.00 93 1006.8
20260506080336 25 265 0.0 1.6 0.00 0.03 0.00 93 1005.7
20260506080228 25 281 0.0 0.0 0.00 0.00 0.00 93 1006.8
20260506073336 25 151 0.0 3.2 0.00 0.03 0.00 92 1006.0
20260506073226 25 153 0.0 0.0 0.00 0.00 0.00 92 1007.1
20260506072832 25 149 0.0 3.2 0.00 0.03 0.00 92 1006.1
20260506072723 25 210 0.0 1.6 0.00 0.00 0.00 92 1007.1
20260506072331 25 209 0.0 3.2 0.00 0.03 0.00 92 1006.0
20260506072223 25 209 0.0 1.6 0.00 0.00 0.00 92 1007.1
20260506071723 25 184 0.0 1.6 0.00 0.00 0.00 92 1007.5
20260506071331 25 240 0.0 1.6 0.00 0.03 0.00 92 1006.2
20260506071222 25 164 0.0 0.0 0.00 0.00 0.00 92 1007.5
20260506070832 25 163 0.0 1.6 0.00 0.03 0.00 92 1006.3
20260506070722 25 164 0.0 1.6 0.00 0.00 0.00 92 1007.5
20260506070332 25 205 0.0 3.2 0.00 0.03 0.00 92 1006.4
20260506070224 25 72 0.0 0.0 0.00 0.00 0.00 92 1007.5
20260506062328 25 200 0.0 3.2 0.00 0.03 0.00 92 1006.7
20260506062222 25 177 0.0 3.2 0.00 0.00 0.00 92 1007.8
20260506061828 25 183 0.0 4.8 0.00 0.03 0.00 91 1006.8
20260506061722 25 158 1.6 3.2 0.00 0.00 0.00 91 1007.8
20260506061327 25 160 0.0 4.8 0.00 0.03 0.00 91 1006.8
20260506061221 25 69 0.0 4.8 0.00 0.00 0.00 91 1008.1
20260506060829 25 236 0.0 4.8 0.00 0.03 0.00 91 1006.9
20260506060723 25 252 0.0 3.2 0.00 0.00 0.00 91 1008.1
20260506060327 25 191 0.0 6.4 0.00 0.03 0.00 91 1006.9
20260506060221 25 216 0.0 1.6 0.00 0.00 0.00 91 1008.1
20260506051323 25 192 1.6 11.3 0.00 0.03 0.00 92 1006.6
20260506051219 25 190 0.0 8.0 0.00 0.00 0.00 92 1007.8
20260506050825 25 240 1.6 11.3 0.00 0.03 0.00 92 1006.7
20260506050722 25 194 0.0 3.2 0.00 0.00 0.00 92 1007.8
20260506050219 25 205 1.6 4.8 0.00 0.00 0.00 92 1007.8
20260506044820 25 183 1.6 9.7 0.00 0.03 0.03 92 1006.5
20260506044719 25 155 1.6 6.4 0.00 0.00 0.03 92 1007.5
20260506044318 25 188 1.6 4.8 0.00 0.03 0.03 92 1006.4
20260506044217 25 211 0.0 3.2 0.00 0.00 0.03 92 1007.5
20260506043817 25 246 1.6 4.8 0.00 0.03 0.03 92 1006.4
20260506043717 25 223 1.6 3.2 0.00 0.00 0.03 92 1007.5
20260506043218 25 195 0.0 4.8 0.00 0.00 0.03 92 1007.5
20260506042718 25 124 3.2 6.4 0.00 0.00 0.03 92 1007.5
20260506042319 25 198 1.6 6.4 0.00 0.03 0.03 92 1006.1
20260506042216 25 183 1.6 3.2 0.00 0.00 0.03 92 1007.1
20260506041819 25 182 1.6 6.4 0.00 0.03 0.03 92 1006.1
20260506041717 25 229 4.8 4.8 0.00 0.00 0.03 92 1007.5
20260506041318 25 190 0.0 4.8 0.00 0.03 0.03 91 1006.1
20260506041218 25 221 0.0 3.2 0.00 0.00 0.03 91 1007.1
20260506040818 25 231 1.6 6.4 0.00 0.03 0.03 91 1006.1
20260506040718 25 180 0.0 1.6 0.00 0.00 0.03 91 1007.1
20260506040219 25 222 1.6 6.4 0.00 0.00 0.03 91 1007.5
20260506035815 25 236 1.6 4.8 0.00 0.03 0.03 91 1006.1
20260506035718 25 138 3.2 3.2 0.00 0.00 0.03 91 1007.1
20260506035216 25 211 1.6 4.8 0.00 0.00 0.03 91 1007.1
20260506034812 25 217 1.6 4.8 0.00 0.03 0.03 91 1006.0
20260506034717 25 250 0.0 3.2 0.00 0.00 0.03 91 1007.1
20260506034216 25 213 0.0 3.2 0.00 0.00 0.03 91 1007.1
20260506033810 25 208 1.6 4.8 0.00 0.03 0.03 91 1005.8
20260506033715 25 173 0.0 4.8 0.00 0.00 0.03 91 1006.8
20260506033312 25 173 1.6 4.8 0.00 0.03 0.03 91 1005.8
20260506033217 25 225 0.0 4.8 0.00 0.00 0.03 91 1006.8
20260506032810 25 197 1.6 4.8 0.00 0.03 0.03 91 1005.8
20260506032714 25 217 0.0 3.2 0.00 0.00 0.03 91 1006.8
20260506032308 25 173 1.6 4.8 0.00 0.03 0.03 91 1005.7
20260506032214 25 171 1.6 3.2 0.00 0.00 0.03 91 1006.8
20260506031807 25 207 1.6 6.4 0.00 0.03 0.03 91 1005.8
20260506031716 25 201 3.2 4.8 0.00 0.00 0.03 91 1007.1
20260506031308 25 86 1.6 6.4 0.00 0.03 0.03 91 1005.8
20260506031215 25 242 3.2 6.4 0.00 0.00 0.03 91 1007.1
20260506030808 25 170 0.0 3.2 0.00 0.03 0.03 91 1005.9
20260506030713 25 141 3.2 3.2 0.00 0.00 0.03 91 1007.1
20260506030308 25 207 1.6 4.8 0.00 0.03 0.03 91 1005.8
20260506030216 25 208 0.0 3.2 0.00 0.00 0.03 91 1006.8
20260506025808 25 142 0.0 4.8 0.00 0.03 0.03 91 1005.8
20260506025715 25 225 1.6 4.8 0.00 0.00 0.03 91 1006.8
20260506025308 25 191 0.0 3.2 0.00 0.03 0.03 91 1005.8
20260506025213 25 164 0.0 1.6 0.00 0.00 0.03 91 1006.8
20260506024742 25 229 1.6 3.2 0.00 0.00 0.03 91 1006.8
20260506024304 25 191 1.6 8.0 0.00 0.03 0.03 90 1005.5
20260506024242 25 202 1.6 8.0 0.00 0.00 0.03 90 1006.8
20260506023758 25 176 1.6 8.0 0.00 0.03 0.03 90 1005.5
20260506023739 25 37 0.0 3.2 0.00 0.00 0.03 90 1006.8
20260506023257 25 202 1.6 8.0 0.00 0.03 0.03 90 1005.5
20260506023241 25 111 0.0 8.0 0.00 0.00 0.03 90 1006.4
20260506022746 25 226 0.0 3.2 0.00 0.03 0.03 90 1005.3
20260506022744 25 207 1.6 1.6 0.00 0.00 0.03 90 1006.4
20260506022314 25 212 0.0 1.6 0.00 0.00 0.03 90 1006.4
20260506021815 25 248 0.0 4.8 0.00 0.00 0.03 90 1006.1
20260506021744 25 220 1.6 6.4 0.00 0.03 0.03 90 1005.1
20260506021313 25 217 0.0 6.4 0.00 0.00 0.03 90 1006.1
20260506021244 25 217 1.6 6.4 0.00 0.03 0.03 90 1005.0
20260506020814 25 247 3.2 6.4 0.00 0.00 0.03 90 1006.1
20260506020745 25 247 1.6 8.0 0.00 0.03 0.03 90 1004.9
20260506020314 25 219 1.6 8.0 0.00 0.00 0.03 90 1006.1
20260506020245 25 197 1.6 8.0 0.00 0.03 0.03 90 1005.1
20260506015813 25 242 0.0 3.2 0.00 0.00 0.03 90 1006.1
20260506015744 25 244 1.6 8.0 0.00 0.03 0.03 90 1005.0
20260506015312 25 208 0.0 6.4 0.00 0.00 0.03 90 1006.1
20260506015244 25 209 3.2 8.0 0.00 0.03 0.03 90 1004.9
20260506014836 25 284 1.6 3.2 0.00 0.00 0.03 90 1006.1
20260506014339 25 163 1.6 6.4 0.00 0.00 0.03 90 1006.1
20260506014245 25 186 1.6 6.4 0.00 0.03 0.03 90 1004.9
20260506013814 25 202 1.6 4.8 0.00 0.00 0.03 90 1005.8
20260506013743 25 234 1.6 6.4 0.00 0.03 0.03 90 1004.7
20260506013313 25 209 3.2 6.4 0.00 0.00 0.03 90 1006.1
20260506013244 25 193 1.6 8.0 0.00 0.03 0.03 90 1004.8
20260506012813 25 234 1.6 4.8 0.00 0.00 0.03 89 1005.8
20260506012745 25 235 1.6 8.0 0.00 0.03 0.03 89 1004.7
20260506012315 25 273 1.6 8.0 0.00 0.00 0.03 89 1005.8
20260506012243 25 269 1.6 8.0 0.00 0.03 0.03 89 1004.7
20260506011815 25 257 3.2 4.8 0.00 0.00 0.03 89 1005.8
20260506011744 25 257 1.6 6.4 0.00 0.03 0.03 89 1004.5
20260506011315 26 205 3.2 6.4 0.00 0.00 0.03 89 1005.8
20260506011241 26 273 1.6 6.4 0.00 0.03 0.03 89 1004.4
20260506010811 26 210 1.6 3.2 0.00 0.00 0.03 89 1005.4
20260506010739 26 184 1.6 4.8 0.00 0.03 0.03 89 1004.4
20260506010343 26 165 1.6 4.8 0.00 0.00 0.03 89 1005.4
20260506005838 26 204 1.6 3.2 0.00 0.00 0.03 88 1005.4
20260506005738 26 191 1.6 6.4 0.00 0.03 0.03 88 1004.2
20260506005340 26 211 1.6 3.2 0.00 0.00 0.03 88 1005.4
20260506005237 26 203 1.6 4.8 0.00 0.03 0.03 88 1004.2
20260506004841 26 169 3.2 4.8 0.00 0.00 0.03 88 1005.4
20260506004738 26 228 1.6 6.4 0.00 0.03 0.03 88 1004.3
20260506004340 26 229 1.6 6.4 0.00 0.00 0.03 88 1005.4
20260506004238 26 259 1.6 6.4 0.00 0.03 0.03 88 1004.2
20260506003838 26 145 0.0 3.2 0.00 0.00 0.03 87 1005.1
20260506003738 26 231 1.6 6.4 0.00 0.03 0.03 87 1004.1
20260506003342 26 269 0.0 6.4 0.00 0.00 0.03 87 1005.1
20260506003235 26 196 1.6 6.4 0.00 0.03 0.03 87 1004.0
20260506002912 26 313 0.0 3.2 0.00 0.00 0.03 87 1005.1
20260506002737 26 329 1.6 4.8 0.00 0.03 0.03 87 1004.0
20260506002416 26 212 1.6 4.8 0.00 0.00 0.03 86 1005.1
20260506002236 26 209 1.6 4.8 0.00 0.03 0.03 86 1004.0
20260506001914 26 207 3.2 3.2 0.00 0.00 0.03 86 1005.1
20260506001736 26 236 1.6 6.4 0.00 0.03 0.03 86 1004.1
20260506001411 26 161 0.0 1.6 0.00 0.00 0.03 86 1005.1
20260506001236 26 186 1.6 8.0 0.00 0.03 0.03 86 1004.0
20260506000913 27 211 1.6 6.4 0.00 0.00 0.03 86 1005.1
20260506000735 27 243 1.6 8.0 0.00 0.03 0.03 86 1004.0
20260506000411 27 111 1.6 4.8 0.00 0.00 0.03 85 1005.1
20260506000236 27 213 1.6 8.0 0.00 0.03 0.03 85 1003.8
20260505235914 27 193 1.6 4.8 0.00 0.00 0.03 85 1005.1
20260505235736 27 210 1.6 8.0 0.00 0.03 0.03 85 1003.8
20260505235411 27 202 3.2 8.0 0.00 0.00 0.03 84 1004.7
20260505235236 27 193 1.6 9.7 0.00 0.03 0.03 84 1003.8
20260505234914 27 193 3.2 6.4 0.00 0.00 0.03 84 1005.1
20260505234735 27 209 1.6 9.7 0.00 0.03 0.03 84 1003.9
20260505234414 27 220 1.6 9.7 0.00 0.00 0.03 84 1004.7
20260505234235 27 202 1.6 6.4 0.00 0.03 0.03 84 1003.9
20260505233916 27 122 1.6 6.4 0.00 0.00 0.03 83 1005.1
20260505233733 27 167 1.6 6.4 0.00 0.03 0.03 83 1003.8
20260505233412 27 153 0.0 6.4 0.00 0.00 0.03 83 1004.7
20260505232914 28 264 1.6 4.8 0.00 0.00 0.03 83 1004.7
20260505232732 28 182 1.6 6.4 0.00 0.03 0.03 83 1003.9
20260505232413 28 229 0.0 4.8 0.00 0.00 0.03 83 1005.1
20260505232231 28 207 1.6 6.4 0.00 0.03 0.03 83 1003.9
20260505231912 27 326 1.6 6.4 0.00 0.00 0.03 83 1005.1
20260505231733 27 119 1.6 6.4 0.00 0.03 0.03 83 1003.9
20260505231414 27 335 0.0 3.2 0.00 0.00 0.03 83 1005.1
20260505230912 28 244 1.6 4.8 0.00 0.00 0.03 83 1005.1
20260505230733 28 186 1.6 6.4 0.00 0.03 0.03 83 1004.0
20260505230412 28 238 0.0 3.2 0.00 0.00 0.03 82 1005.1
20260505230231 28 179 1.6 6.4 0.00 0.03 0.03 82 1004.0
20260505225939 28 231 0.0 6.4 0.00 0.00 0.03 82 1005.1
20260505225733 28 210 1.6 6.4 0.00 0.03 0.03 82 1004.0
20260505225438 28 222 4.8 4.8 0.00 0.00 0.03 82 1005.1
20260505225229 28 66 1.6 6.4 0.00 0.03 0.03 82 1004.1
20260505224937 28 200 0.0 4.8 0.00 0.00 0.03 82 1005.1
20260505224728 28 258 1.6 6.4 0.00 0.03 0.03 82 1004.1
20260505224440 28 167 4.8 6.4 0.00 0.00 0.03 82 1005.4
20260505224228 28 123 1.6 4.8 0.00 0.03 0.03 82 1004.1
20260505223942 28 333 0.0 3.2 0.00 0.00 0.03 82 1005.4
20260505223728 28 142 1.6 8.0 0.00 0.03 0.03 82 1004.2
20260505223442 28 200 0.0 4.8 0.00 0.00 0.03 81 1005.4
20260505223227 28 235 1.6 8.0 0.00 0.03 0.03 81 1004.4
20260505222942 28 202 0.0 4.8 0.00 0.00 0.03 81 1005.4
20260505222728 28 154 1.6 9.7 0.00 0.03 0.03 81 1004.4
20260505222439 28 261 1.6 6.4 0.00 0.00 0.03 80 1005.4